星链-3651 (STARLINK-3651 )

导读

STARLINK-3651是美国SpaceX公司星链星座的一员,于2022年3月9日发射升空,属于星链低轨互联网星座组网卫星。它运行在近地轨道,依托星链星座的规模化布局,可为全球偏远地区、基础设施薄弱区域提供低时延高速宽带互联网服务,助力实现全球无缝网络覆盖,是星链星座扩容计划中的组成部分。

Basic Information
目录编号:
51985
目录名称:
STARLINK-3651
国际标识:
2022-025AF
轨道中心:
EARTH
卫星名称:
星链-3651
卫星全名:
星链-3651 (STARLINK-3651 )
卫星状态:
在轨 (已飞行1640 天)
发射日期:
2022-03-09 UTC
国别 :
美国 (US)
星等 :
--
Orbit Information
数据来源 国际轨道数据
星历时间: 2026-09-04T11:35:11+0800
4小时前
查看轨道信息
半长轴: 6848.882km
偏心率: 0.0000976
轨道倾角: 53.160°
近地点辐角 82.441°
升交点赤经 307.911°
平近点角 277.670°
近地点: 470.076km
远地点: 471.414km
周期: 94.013分钟
每日圈数: 15.316985
Detailed Information
固有亮度:
5
最大亮度:
2.5
卫星平台:
Starlink v1.5
覆盖范围:
全球
运营商:
太空探索技术公司
运营商所在国:
美国
制造商(研发单位):
太空探索技术公司
制造商所在国:
美国
使用方式:
暂无
Satellite Introduction
星链(Starlink)计划是由太空探索技术公司(SpaceX)提出的一个巨型低轨卫星互联网星座项目,计划在2019年至2024年间在太空搭建由约1.2万颗卫星组成的“星链”网络,其中1584颗将部署在地球上空550千米处的近地轨道,并从2020年开始工作。该卫星仍在工作。
2D Orbit Map
3D Orbit Map
Orbit Altitude Analysis Chart
Orbit Inclination Analysis Chart
Orbit Comprehensive Analysis Chart
View Comprehensive Chart
Conjunction Data List
Event ID Objects TCA Miss Dist (km) Collision Risk Probability Collision Risk Index (CRI) Action
CDM_260906-051505-198506-411321
2026-09-06T
05:15:53+0000
1.173 km
极远距离
5.568925E-6 低风险 0.5
CDM_260906-012105-198506-411321
2026-09-06T
01:21:00+0000
1.766 km
极远距离
1.571956E-6 低风险 0.39
CDM_260905-122205-198506-874221
2026-09-05T
12:22:55+0000
2.781 km
极远距离
1.472992E-6 低风险 0.38
CDM_260905-234705-198506-411321
2026-09-05T
23:47:03+0000
1.838 km
极远距离
1.416193E-6 低风险 0.38
CDM_260905-105205-198506-867821
2026-09-05T
10:52:41+0000
2.872 km
极远距离
1.412224E-6 低风险 0.38
CDM_260904-093805-198506-485422
2026-09-04T
09:38:24+0000
2.953 km
极远距离
1.341915E-6 低风险 0.38
CDM_260903-043205-198506-781321
2026-09-03T
04:32:40+0000
2.975 km
极远距离
1.263383E-6 低风险 0.37
CDM_260905-153105-198506-525621
2026-09-05T
15:31:37+0000
2.994 km
极远距离
8.043566E-7 极低风险 0.33
CDM_260906-034105-198506-411321
2026-09-06T
03:41:56+0000
2.625 km
极远距离
6.965409E-7 极低风险 0.32